Theta_e
313 313 314 319 322 325 327 329 329 330 331 329 328 328 327 328 329 329 329 327 326 326 324 323 322 322 320 318 318 318 318 317 318 316 317 317 318 319 317 314 311 311 311
307 309 312 313 320 322 325 327 329 330 330 331 330 330 329 329 329 330 329 329 327 326 325 324 323 322 322 321 320 318 317 317 318 314 314 309 311 314 316 314 313 311 310
307 306 306 309 315 320 323 325 326 328 330 331 331 331 330 329 327 327 328 329 329 328 326 325 324 323 323 321 321 319 318 315 316 317 312 307 305 308 311 310 312 310 309
306 307 307 307 307 315 320 324 326 327 328 329 329 329 327 325 327 327 328 329 329 328 328 326 325 324 324 322 322 322 320 318 315 316 318 316 312 307 304 306 307 310 309
305 305 306 309 309 311 311 317 321 323 326 328 329 329 328 328 328 328 327 327 328 328 328 327 325 324 324 323 322 322 321 320 318 316 314 315 315 314 312 308 309 304 306
304 305 308 309 308 308 311 312 313 316 320 324 326 327 328 327 326 326 326 327 328 328 328 328 326 325 324 323 323 322 321 321 320 319 317 314 310 311 309 309 310 309 309
302 304 302 303 304 304 306 308 310 312 314 318 322 324 327 328 327 326 325 325 325 326 327 328 327 325 325 324 324 323 322 321 320 319 319 319 316 315 313 311 309 306 309
300 300 300 302 302 304 303 304 306 308 311 312 317 322 324 327 328 328 327 326 325 326 327 327 327 326 325 325 324 323 323 322 321 319 319 319 319 319 317 314 311 309 310
300 299 300 300 301 302 303 302 302 305 308 310 312 315 322 323 325 327 328 327 326 327 326 325 325 325 325 324 324 324 323 323 322 321 320 319 320 319 319 318 317 314 308
297 299 299 300 301 302 302 302 302 302 304 307 310 313 316 320 323 325 325 326 326 326 324 324 324 324 324 324 324 324 324 323 322 322 321 320 321 320 320 319 317 316 313
296 298 299 300 300 301 301 301 301 301 302 304 307 310 313 317 319 321 323 324 324 324 324 324 324 323 323 323 322 323 323 321 321 321 320 319 320 319 318 317 316 315 314
297 297 297 298 299 301 301 301 301 301 302 303 308 308 310 314 317 318 319 320 322 323 323 324 324 324 323 323 322 322 321 320 319 319 319 318 318 316 316 315 314 314 315
296 297 297 298 298 299 300 301 303 301 301 301 303 311 312 312 314 316 318 319 319 320 321 323 322 323 322 322 321 321 320 319 318 318 317 317 316 314 315 314 314 313 312
296 295 294 294 296 297 297 298 299 302 302 301 300 303 311 314 315 316 317 319 319 319 320 321 321 321 321 321 321 320 319 318 317 317 316 316 314 313 313 312 311 309 307
293 293 294 294 294 294 295 296 297 299 301 301 299 300 302 310 309 308 310 309 309 311 311 314 316 317 317 317 318 318 317 316 315 312 313 311 304 298 304 307 307 302 296
290 291 291 291 291 292 293 293 295 296 297 298 299 299 299 298 300 301 300 301 301 302 301 301 301 303 303 296 297 300 309 308 307 306 300 295 291 294 294 296 297 299 296
287 287 288 289 289 290 291 290 292 293 292 294 298 295 295 294 295 294 294 294 296 296 295 296 296 296 295 296 295 295 301 302 301 298 294 291 291 292 292 294 294 292 296
285 285 285 286 287 289 289 288 289 288 289 292 295 292 290 289 289 290 292 292 293 292 292 292 293 292 291 294 294 294 296 294 293 292 291 290 289 290 290 289 288 287 287
283 284 284 285 285 286 286 285 286 285 286 288 288 289 288 288 290 289 291 292 290 289 289 288 287 287 288 293 293 291 288 288 287 287 289 289 288 291 292 287 286 285 285
281 282 282 281 282 283 283 282 283 283 284 286 285 287 288 288 289 290 289 287 286 285 285 285 285 285 286 291 292 290 287 286 285 285 286 287 288 290 291 286 286 285 284
280 280 279 278 279 279 279 280 281 281 283 283 284 286 287 288 289 288 286 286 286 285 285 285 285 285 286 288 291 291 286 286 285 285 285 286 290 290 290 289 286 286 286
276 276 275 275 276 276 277 277 276 279 279 280 281 284 287 287 287 286 285 285 285 285 285 285 284 285 285 287 290 290 289 290 286 285 285 287 290 290 290 288 290 289 286
274 274 273 272 273 273 274 273 273 275 276 276 278 283 286 286 286 286 285 285 285 285 285 285 284 283 284 285 288 289 289 289 286 286 288 290 290 290 289 289 289 285 285
271 271 269 269 268 270 270 269 271 273 272 272 276 282 285 285 285 285 285 285 285 285 285 285 284 283 284 284 284 285 285 286 287 287 286 287 287 287 285 284 284 284 284
269 268 267 266 266 267 267 267 269 269 269 271 274 280 283 284 282 282 283 283 283 286 285 285 285 284 283 284 285 285 284 285 285 285 284 283 283 282 282 282 282 282 280
266 265 264 264 264 264 265 265 267 267 268 270 275 280 281 281 281 282 283 286 287 287 287 287 285 284 287 287 287 286 287 287 286 282 281 280 280 280 280 280 279 278 280
Wind_Speed
7 7 7 11 10 9 11 12 14 15 11 10 9 9 10 8 8 7 10 10 9 11 10 7 5 6 6 6 6 5 6 4 4 1 1 3 5 6 5 5 5 6 7
11 10 9 9 13 13 11 13 15 15 14 11 11 10 9 8 9 8 9 11 11 11 11 11 9 8 6 8 8 7 4 4 5 4 1 3 3 7 8 5 6 7 5
13 9 8 9 10 13 13 12 12 12 12 14 9 7 7 7 7 9 11 13 14 13 13 13 11 10 9 9 9 8 10 6 4 8 5 3 5 2 2 7 6 6 5
9 8 8 8 6 9 10 14 13 13 12 11 11 14 12 12 12 11 11 11 15 15 14 14 14 13 10 11 10 9 9 7 8 3 9 7 3 2 2 2 4 5 7
5 4 6 7 6 6 1 7 10 11 13 13 14 13 14 11 9 10 12 14 12 16 16 15 15 14 11 13 13 11 12 10 9 6 3 9 8 8 7 9 5 3 5
8 9 7 6 5 6 6 6 6 7 8 11 14 16 17 15 11 12 10 10 10 11 16 16 15 15 14 14 13 14 14 14 12 10 9 7 5 9 8 10 12 10 6
6 5 6 6 6 6 6 7 6 9 8 9 13 15 17 16 16 14 10 11 10 9 14 16 15 13 16 15 14 14 15 15 14 15 12 10 10 8 7 9 8 7 5
8 6 6 6 6 7 6 6 8 9 7 8 10 13 14 11 12 14 11 9 11 11 12 12 15 16 15 14 13 11 12 14 14 17 15 11 11 10 11 11 9 8 8
6 6 7 7 8 7 7 6 7 8 8 8 7 8 12 14 13 15 12 11 11 10 10 11 13 16 15 15 15 12 14 14 14 15 15 13 12 10 10 10 11 10 9
1 3 3 6 6 8 8 6 6 8 8 8 7 7 7 10 12 12 13 13 11 11 8 10 13 13 14 14 14 13 14 14 12 12 15 14 12 11 9 9 8 7 10
6 6 6 6 7 8 8 8 6 6 7 7 8 8 7 7 7 10 11 12 11 8 9 10 10 12 12 13 13 15 14 16 15 15 15 15 13 10 8 6 6 8 8
5 4 7 8 8 10 10 9 8 7 6 6 7 8 7 7 7 7 7 6 8 8 8 8 11 12 12 11 13 14 13 15 14 14 12 14 9 11 9 7 10 10 10
5 8 9 10 12 13 15 16 16 11 7 5 6 8 8 7 7 6 6 6 6 6 6 6 6 8 9 11 11 11 12 12 12 11 11 11 9 10 8 9 9 8 7
11 9 8 8 10 13 15 16 17 18 14 6 6 7 8 7 6 6 6 6 5 5 5 5 5 6 7 8 9 9 9 10 10 10 10 10 11 12 11 10 10 7 7
13 13 13 12 14 16 17 18 17 17 18 18 7 7 7 7 6 6 5 4 5 4 5 5 4 5 5 5 7 8 9 10 10 8 9 8 5 5 5 6 6 5 3
13 14 14 15 16 16 17 19 19 19 20 19 15 7 6 6 6 5 3 4 4 4 4 4 4 5 2 5 3 3 5 6 6 6 4 5 5 8 8 7 6 7 6
15 15 14 15 16 17 16 18 20 20 20 18 17 8 7 6 6 4 4 5 3 2 2 3 3 1 2 5 4 2 3 3 4 5 5 4 3 6 6 8 11 8 7
14 14 14 15 16 16 17 17 17 18 20 19 17 10 7 7 6 5 5 5 3 3 2 1 1 1 1 3 4 3 4 4 4 3 4 5 5 3 6 5 7 5 5
13 13 14 15 17 16 16 18 20 19 19 17 16 15 9 8 9 6 6 4 2 1 1 0 1 2 1 2 2 4 5 5 5 5 5 4 5 4 7 5 8 6 5
13 14 16 16 16 16 17 18 18 19 18 18 20 18 16 14 11 7 5 2 2 2 2 2 1 2 2 3 3 5 4 5 4 4 4 6 6 7 7 5 7 8 4
15 16 14 15 15 16 17 18 17 16 16 18 18 18 13 11 9 5 2 2 3 4 3 4 1 2 1 3 4 7 3 5 5 4 3 2 10 9 9 8 4 4 7
18 16 15 14 15 16 16 19 18 17 17 17 17 18 14 9 6 5 2 2 4 5 5 5 3 1 2 4 6 8 8 8 6 5 3 5 12 13 13 8 14 14 8
16 15 15 17 14 14 15 18 18 18 17 17 17 17 14 8 5 4 4 2 4 4 5 4 4 2 2 2 9 10 10 10 5 4 8 14 14 16 13 14 13 7 4
16 16 18 17 16 14 15 16 17 17 17 16 15 15 11 8 4 2 2 3 3 3 4 4 4 3 3 3 2 3 4 10 7 9 7 9 11 11 10 7 6 3 3
15 15 15 15 17 17 16 16 16 15 15 15 14 13 8 5 2 1 1 1 0 3 3 2 4 5 4 3 6 5 4 4 8 7 5 5 4 5 5 5 4 3 2
15 14 15 15 16 16 16 16 15 15 15 14 11 9 6 3 1 1 4 10 9 11 11 8 5 2 9 11 10 11 13 13 10 3 4 4 5 4 4 4 4 3 4
Wind_Direction
264 265 208 191 194 198 206 209 192 197 193 196 199 216 213 205 202 208 204 200 198 198 204 213 207 196 190 193 202 197 209 234 192 201 226 246 229 236 219 208 211 213 210
251 244 234 202 186 199 209 221 219 203 200 204 204 206 214 215 209 202 207 208 201 199 203 206 210 203 196 199 202 196 197 202 191 171 175 274 281 245 230 202 212 215 206
256 255 252 232 187 193 203 215 230 227 217 211 208 207 213 217 210 212 213 212 208 203 202 203 206 207 202 206 205 200 200 200 211 192 165 199 232 208 208 219 211 208 211
254 245 241 261 222 212 209 208 212 216 220 217 210 207 210 212 215 218 220 211 210 210 209 208 205 205 204 208 205 201 204 188 203 185 216 230 163 223 299 304 233 221 220
251 52 36 49 16 358 239 217 222 218 218 216 222 216 221 225 219 218 222 216 208 211 212 208 209 211 208 211 205 200 201 202 207 198 162 223 237 235 242 269 239 263 237
55 45 13 4 343 341 306 270 248 244 224 217 225 225 222 224 223 225 222 222 212 207 213 213 210 212 212 211 207 204 204 207 209 214 209 192 180 212 213 238 249 242 232
71 44 36 6 348 349 334 314 285 252 240 234 231 231 232 225 228 227 224 222 221 218 217 208 211 211 217 216 211 206 209 207 208 211 213 214 215 212 201 216 237 231 232
69 47 360 331 336 339 337 322 308 292 267 239 237 228 233 231 231 230 227 224 227 225 221 208 212 214 212 217 216 216 215 215 215 215 213 214 218 212 214 219 219 248 237
37 2 353 340 336 325 313 304 304 295 294 281 261 243 227 229 232 236 232 227 229 225 218 204 205 214 215 214 213 216 222 222 218 216 216 215 221 220 218 219 222 232 255
160 317 326 300 293 295 294 286 287 285 284 287 284 271 245 231 228 231 232 231 230 225 213 201 206 208 212 213 214 218 223 225 224 223 220 220 224 225 223 224 216 217 239
38 9 359 359 358 348 343 316 296 297 300 297 291 284 275 261 240 229 233 232 233 225 216 207 200 205 209 213 215 220 225 225 224 225 225 225 225 224 220 212 214 222 225
32 10 23 10 7 354 345 334 328 308 289 291 300 288 287 276 260 252 252 240 235 236 232 216 212 211 207 212 216 222 224 232 230 231 229 232 229 224 219 214 225 228 229
3 38 31 16 1 353 352 345 338 318 301 302 305 298 289 281 271 261 252 256 255 246 247 233 214 216 215 215 220 228 237 230 233 231 229 229 218 226 224 221 226 226 226
51 29 16 5 359 351 348 344 339 335 320 286 292 296 294 298 303 295 270 257 272 270 264 239 226 215 214 220 217 219 225 228 228 223 219 218 216 221 220 219 220 216 213
29 15 3 357 355 349 346 341 335 334 330 320 288 280 289 294 307 316 343 6 8 352 344 321 280 245 223 222 221 220 214 218 217 208 216 217 219 221 208 202 207 190 167
18 5 356 353 349 345 341 335 330 334 332 321 304 288 296 302 296 299 344 344 330 339 343 333 332 316 10 6 6 244 226 214 209 206 131 116 109 92 102 103 125 168 164
358 353 349 343 339 336 337 331 332 328 325 318 312 286 278 282 285 302 325 307 301 342 303 311 322 314 24 357 353 312 231 208 192 167 153 144 140 141 121 102 98 82 104
348 341 339 334 332 328 331 332 331 329 324 319 319 313 293 285 286 278 269 281 281 276 280 297 342 136 43 2 357 33 93 82 81 99 153 148 151 135 146 135 102 92 72
337 331 332 329 327 329 332 331 325 328 325 322 334 330 323 302 288 269 272 239 229 234 230 167 93 142 140 83 71 103 102 96 74 67 63 115 124 144 128 125 114 92 63
332 332 332 333 327 333 331 324 322 324 323 324 323 316 313 301 286 269 248 201 160 146 115 78 41 100 99 77 112 125 124 107 105 75 77 102 123 124 132 127 134 123 126
334 338 335 326 330 330 323 319 321 317 318 321 313 309 299 291 277 266 218 195 157 138 135 123 79 82 86 90 112 136 135 139 131 122 107 91 117 115 117 117 116 128 132
336 337 330 327 327 326 325 321 316 318 318 314 309 303 295 286 275 238 225 187 162 152 148 135 106 40 53 92 92 112 128 139 130 134 136 125 124 122 113 100 120 126 110
329 331 325 323 326 327 325 316 313 316 316 311 306 301 294 282 272 239 197 187 179 171 161 157 151 136 97 65 89 98 108 115 101 122 130 125 125 111 99 106 111 105 113
329 328 327 323 323 325 320 310 312 314 311 305 305 301 294 285 281 263 203 182 182 172 166 161 150 142 119 114 85 72 89 104 101 100 99 106 105 105 101 89 80 73 80
330 326 322 321 321 323 318 315 314 315 308 303 300 296 289 277 291 341 352 120 121 180 167 159 153 156 154 164 148 131 106 102 111 106 101 105 103 99 94 93 94 82 82
328 326 323 320 322 322 318 317 319 314 307 302 302 297 289 269 268 122 94 74 91 102 102 116 124 101 131 133 129 129 124 118 110 65 98 96 96 100 104 110 104 84 81